Ukiah, CA

4:54 AM PDT on March 29, 2017 (GMT -0700)
Ukiah Municipal

Weather History for KUKI - October, 2012

Change the Weather History Date:

Friday, October 5, 2012

  Actual Average Record
Temperature  
Mean Temperature 63 °F 64 °F  
Max Temperature 76 °F 82 °F 103 °F (1933)
Min Temperature 50 °F 45 °F 28 °F (1916)
Degree Days  
Heating Degree Days 4 3  
Month to date heating degree days 13  
Since 1 July heating degree days 46  
Cooling Degree Days 0 2  
Month to date cooling degree days 10  
Year to date cooling degree days 823  
Growing Degree Days 12 (Base 50)    
Moisture  
Dew Point 49 °F    
Average Humidity 65    
Maximum Humidity 89    
Minimum Humidity 41    
Precipitation  
Precipitation 0.00 in 0.01 in 1.76 in (1924)
Month to date precipitation 0.00 0.03  
Year to date precipitation 18.92 24.00  
Since 1 July precipitation T  
Snow  
Snow 0.00 in - - ()
Month to date snowfall 0.0  
Since 1 July snowfall 0.0  
Since 1 September snowfall 0.0  
Snow Depth -    
Sea Level Pressure  
Sea Level Pressure 30.10 in    
Wind  
Wind Speed 2 mph (South)    
Max Wind Speed 13 mph    
Max Gust Speed 18 mph    
Visibility 10 miles    
Events      
T = Trace of Precipitation, MM = Missing Value Source: NWS Daily Summary

Daily Weather History Graph

Daily Weather History Graph

Search for Another Location

Airport or City:

Trip Planner

Search our weather history database for the weather conditions in past years. The results will help you decide how hot, cold, wet, or windy it might be!

Date:

Astronomy

Oct. 05, 2012 Rise Set
Actual Time 7:13 AM PDT 6:48 PM PDT
Civil Twilight 6:46 AM PDT 7:14 PM PDT
Nautical Twilight 6:15 AM PDT 7:45 PM PDT
Astronomical Twilight 5:44 AM PDT 8:16 PM PDT
Moon 10:18 PM PDT (10/5) 12:23 PM PDT (10/5)
Length of Visible Light 12h 28m
Length of Day
11h 35m
Waning Gibbous, 73% of the Moon is Illuminated
Oct 5
Waning Gibbous
Oct 8
Last Quarter
Oct 15
New
Oct 21
First Quarter
Oct 29
Full

Hourly Weather History & Observations

Time (PDT) Temp. Dew Point Humidity Pressure Visibility Wind Dir Wind Speed Gust Speed Precip Events Conditions
12:56 AM 55.9 °F 50.0 °F 80% 30.12 in 10.0 mi Calm Calm - N/A   Clear
1:56 AM 53.1 °F 48.9 °F 86% 30.12 in 10.0 mi Calm Calm - N/A   Clear
2:56 AM 54.0 °F 48.0 °F 80% 30.13 in 10.0 mi Calm Calm - N/A   Clear
3:56 AM 52.0 °F 48.0 °F 86% 30.12 in 10.0 mi Calm Calm - N/A   Clear
4:56 AM 50.0 °F 46.9 °F 89% 30.12 in 10.0 mi Calm Calm - N/A   Partly Cloudy
5:09 AM 51.8 °F 46.4 °F 82% 30.14 in 10.0 mi Calm Calm - N/A   Mostly Cloudy
5:56 AM 53.1 °F 48.0 °F 83% 30.13 in 10.0 mi Calm Calm - N/A   Partly Cloudy
6:56 AM 53.1 °F 48.0 °F 83% 30.14 in 10.0 mi Calm Calm - N/A   Clear
7:56 AM 52.0 °F 48.0 °F 86% 30.15 in 10.0 mi Calm Calm - N/A   Clear
8:56 AM 54.0 °F 48.9 °F 83% 30.15 in 10.0 mi Calm Calm - N/A   Clear
9:56 AM 60.1 °F 50.0 °F 69% 30.14 in 10.0 mi Calm Calm - N/A   Clear
10:56 AM 64.0 °F 48.9 °F 58% 30.13 in 10.0 mi NW 3.5 mph - N/A   Partly Cloudy
11:56 AM 66.9 °F 50.0 °F 54% 30.12 in 10.0 mi SE 4.6 mph - N/A   Scattered Clouds
12:56 PM 69.1 °F 48.9 °F 49% 30.10 in 10.0 mi SSE 3.5 mph - N/A   Scattered Clouds
1:56 PM 70.0 °F 48.0 °F 46% 30.08 in 10.0 mi West 3.5 mph - N/A   Partly Cloudy
2:56 PM 73.0 °F 48.0 °F 41% 30.06 in 10.0 mi Variable 4.6 mph - N/A   Mostly Cloudy
3:56 PM 72.0 °F 48.0 °F 43% 30.05 in 10.0 mi West 6.9 mph - N/A   Mostly Cloudy
4:56 PM 71.1 °F 50.0 °F 47% 30.04 in 10.0 mi West 9.2 mph - N/A   Clear
5:56 PM 68.0 °F 51.1 °F 55% 30.04 in 10.0 mi SW 8.1 mph - N/A   Clear
6:56 PM 64.9 °F 50.0 °F 58% 30.05 in 10.0 mi East 3.5 mph - N/A   Scattered Clouds
7:56 PM 63.0 °F 50.0 °F 63% 30.06 in 10.0 mi Variable 4.6 mph - N/A   Partly Cloudy
8:56 PM 59.0 °F 50.0 °F 72% 30.07 in 10.0 mi SSE 3.5 mph - N/A   Clear
9:56 PM 57.9 °F 48.9 °F 72% 30.07 in 10.0 mi SE 3.5 mph - N/A   Overcast
10:08 PM 59.0 °F 50.0 °F 72% 30.08 in 10.0 mi Calm Calm - N/A   Overcast
10:56 PM 60.1 °F 48.9 °F 67% 30.07 in 10.0 mi SE 3.5 mph - N/A   Overcast
11:56 PM 60.1 °F 48.9 °F 67% 30.06 in 10.0 mi South 3.5 mph - N/A   Overcast